Theta_e
295 295 295 295 295 295 295 295 294 294 294 293 293 293 292 292 292 292 291 291 291 291 291 291 291 291 291 291 291 291 291 291 291 291 292 291 292 292 292 292 291 291 292 292 292 292 292 292 292 292 292 292 292 292 292 292 292 293 293 293 294 294 295 295 295 296 296 297 298 298 298 298 298 299 299 299 299 299 300 300 301 301 301 302 303 305
295 295 295 295 295 295 294 294 294 293 293 293 292 292 292 291 291 291 291 291 291 290 290 290 291 291 291 291 291 291 291 291 291 291 291 291 291 291 291 291 292 292 292 292 292 292 292 292 292 292 291 292 292 292 292 292 292 292 292 292 292 293 293 293 294 294 295 295 296 296 297 297 297 297 297 297 298 299 299 300 301 302 302 303 303 304
295 295 294 294 294 294 294 293 293 293 292 292 292 291 291 291 291 291 290 290 290 290 290 290 290 290 290 290 290 290 290 291 291 291 291 291 291 291 291 291 291 291 292 292 292 292 292 291 291 291 291 291 291 291 292 291 291 291 292 292 292 292 292 292 292 293 293 293 294 294 295 295 295 296 296 296 297 297 298 299 300 301 302 303 303 304
294 294 294 294 294 293 293 293 292 292 292 291 291 291 291 291 291 290 290 290 290 290 290 290 290 290 290 290 290 290 290 290 291 291 291 291 291 291 291 291 291 291 291 291 291 291 291 291 291 291 291 291 291 291 291 291 291 291 291 291 291 291 292 292 292 292 292 292 293 293 293 294 294 295 295 296 296 297 297 298 299 299 300 301 302 303
294 294 293 293 293 292 292 292 292 291 291 291 291 291 291 290 290 290 290 290 290 290 290 290 290 290 290 290 290 290 290 290 290 290 290 290 290 290 290 291 291 291 291 291 291 291 291 291 291 291 291 291 291 291 291 291 291 291 291 291 291 291 291 292 292 292 292 292 292 292 292 293 293 293 294 294 295 296 296 297 298 299 300 300 301 301
293 293 293 292 292 292 291 291 291 291 291 291 291 290 290 290 290 290 290 290 290 290 290 290 290 290 289 289 289 289 290 290 290 290 290 290 290 290 290 290 290 291 291 291 291 291 291 291 291 291 291 291 291 291 291 291 291 290 290 291 291 291 291 291 292 292 292 292 292 292 292 292 292 293 293 293 294 294 295 296 296 297 298 299 299 300
292 292 292 291 291 291 291 291 291 291 291 291 290 290 290 290 290 290 290 290 290 290 290 290 289 289 289 289 289 289 289 289 289 289 289 289 290 290 290 290 290 290 290 290 290 290 290 290 291 291 291 291 291 290 290 290 290 290 290 290 290 290 290 291 291 291 291 292 292 292 292 292 292 292 292 292 293 293 294 294 295 296 296 297 298 298
292 291 291 291 291 291 291 291 291 291 290 290 290 290 290 290 290 290 290 290 290 289 289 289 289 289 289 289 289 289 289 289 289 289 289 289 289 289 290 290 290 290 290 290 290 290 290 290 290 290 290 290 290 290 290 290 290 290 290 290 290 290 290 290 290 291 291 291 291 291 291 291 292 292 292 292 292 293 293 293 294 294 295 296 296 297
291 291 291 291 291 291 291 290 290 290 290 290 290 290 290 290 290 290 289 289 289 289 289 288 288 288 288 288 288 288 289 289 289 289 289 289 289 289 289 290 290 290 290 290 290 290 290 290 290 290 290 290 290 290 290 290 290 290 290 290 290 289 290 290 290 290 290 291 291 291 291 291 291 292 292 292 292 292 292 293 293 293 294 294 295 295
291 291 291 290 290 290 290 290 290 290 290 290 290 290 290 289 289 289 289 289 288 288 288 288 288 288 288 288 288 288 288 288 289 289 289 289 289 289 289 289 289 289 289 289 289 290 290 290 290 290 290 290 290 290 290 290 290 290 290 290 290 290 290 290 290 290 290 290 290 291 291 291 291 291 291 291 291 291 292 292 292 292 293 293 293 294
290 290 290 290 290 290 290 289 289 289 289 289 289 289 289 289 289 288 288 288 288 288 287 287 288 288 288 288 288 288 288 288 288 289 289 289 289 289 289 289 289 289 289 289 289 289 289 289 289 289 289 289 289 289 289 289 289 289 290 290 290 290 290 290 290 290 290 290 290 290 290 291 291 291 291 291 291 291 291 291 291 292 292 292 292 293
290 290 290 290 290 289 289 289 289 289 289 289 289 289 288 288 288 288 288 288 287 287 287 287 287 287 287 287 287 287 288 288 288 288 289 289 289 288 288 288 288 288 288 288 288 288 288 288 289 289 289 289 289 289 289 289 289 290 290 290 290 290 290 290 290 290 290 290 290 290 290 290 290 290 290 290 290 291 291 291 291 291 291 292 292 292
289 289 289 289 289 289 289 289 289 289 288 288 288 288 288 288 288 287 287 287 287 287 287 287 287 287 287 287 287 287 288 288 288 288 288 288 288 288 288 288 288 288 288 288 288 288 288 288 288 288 288 288 289 289 289 289 289 289 290 290 290 290 290 290 290 290 289 289 290 290 290 290 290 290 290 290 290 290 290 291 291 291 291 291 291 292
289 289 289 289 289 288 288 288 288 288 288 288 288 288 288 287 287 287 287 287 286 286 286 286 286 286 286 287 287 287 287 287 288 287 287 287 287 287 287 287 287 287 287 287 287 287 287 288 288 288 288 288 288 289 289 289 289 289 289 289 289 289 290 290 290 290 289 289 289 289 290 290 290 290 290 290 290 290 290 290 290 291 291 291 291 291
289 288 288 288 288 288 288 288 288 288 288 288 288 287 287 287 287 286 286 286 286 286 286 286 286 286 286 286 287 287 287 287 287 287 287 287 287 287 287 287 287 287 287 287 287 287 287 287 287 288 288 288 288 288 289 289 289 289 289 289 289 289 289 289 289 289 289 289 289 289 289 289 289 289 290 290 290 290 290 290 290 290 290 291 291 291
288 288 288 288 288 288 288 288 288 288 287 287 287 287 287 286 286 286 286 285 285 285 285 286 286 286 286 286 286 286 287 287 286 286 286 286 286 286 286 286 286 286 286 287 287 287 287 287 287 287 288 288 288 288 288 288 288 288 288 288 289 289 289 289 289 289 289 289 289 289 289 289 289 289 289 289 290 290 290 290 290 290 290 290 291 291
287 287 287 287 287 288 287 287 287 287 287 287 287 286 286 286 285 285 285 285 285 285 285 286 286 286 286 286 286 286 286 286 286 286 286 286 286 286 286 286 286 286 286 287 287 287 287 287 287 287 287 287 288 288 288 288 288 288 288 288 288 288 288 288 288 288 288 288 289 289 289 289 289 289 289 289 289 289 289 289 290 290 290 290 290 291
287 287 287 287 287 287 287 287 287 287 287 286 286 286 285 285 285 285 285 285 285 285 285 285 285 285 286 286 286 286 286 286 285 285 285 285 286 286 286 286 286 286 286 287 287 287 287 287 287 287 287 287 287 287 287 287 287 288 288 288 288 288 288 288 288 288 288 288 288 288 288 289 289 289 289 289 289 289 289 290 290 290 290 290 290 291
286 287 287 287 287 287 287 287 287 286 286 286 285 285 285 285 284 284 284 284 285 285 285 285 285 285 285 285 285 285 285 285 285 285 285 285 285 286 286 286 286 286 286 287 287 287 287 287 287 286 286 287 287 287 287 287 287 287 288 288 288 288 288 288 288 288 288 288 288 288 289 289 289 289 289 289 289 289 289 290 290 290 290 290 290 290
286 286 286 286 286 286 286 286 286 286 286 285 285 285 284 284 284 284 284 284 284 284 284 284 285 285 285 285 285 285 285 285 285 285 285 285 285 286 286 286 286 286 286 286 286 286 286 286 286 286 286 286 286 286 287 287 287 287 287 287 287 288 288 288 288 288 288 288 288 288 289 289 289 289 289 289 289 289 290 290 290 290 290 290 290 290
286 286 286 286 286 286 286 286 285 285 285 285 285 284 284 284 284 284 284 284 284 284 284 284 284 284 284 284 284 284 284 284 284 285 285 285 285 286 286 286 286 286 286 286 286 286 286 286 286 286 286 286 286 286 286 287 287 287 287 287 287 287 287 288 288 288 288 288 288 288 288 288 288 288 289 289 289 289 289 289 290 290 290 290 290 290
286 286 285 285 285 285 285 285 285 285 284 284 284 284 284 284 284 284 284 283 283 283 284 284 284 284 284 284 284 284 284 284 284 285 285 285 285 285 286 286 286 285 285 285 285 285 285 285 285 285 285 285 286 286 286 286 286 286 287 287 287 287 287 287 287 288 288 288 288 288 288 288 288 288 288 288 289 289 289 289 290 290 290 290 290 290
285 285 285 285 285 285 284 284 284 284 284 284 284 284 283 283 283 283 283 283 283 283 283 283 283 283 283 283 283 284 284 284 285 285 285 285 285 285 285 285 285 285 285 285 285 285 285 285 285 285 285 285 285 285 286 286 286 286 286 286 287 287 287 287 287 287 288 288 288 288 288 288 288 288 288 288 288 288 289 289 289 289 289 289 289 289
284 284 284 284 284 284 284 284 284 284 284 283 283 283 283 283 283 283 283 283 283 283 283 283 283 283 283 283 283 284 284 284 285 285 285 285 285 285 285 285 285 285 285 285 285 285 285 285 285 284 284 285 285 285 285 285 286 286 286 286 286 287 287 287 287 287 287 287 287 287 288 288 288 288 288 288 288 288 288 288 288 288 288 288 289 289
284 284 284 284 284 284 284 284 284 284 283 283 283 283 283 283 283 283 283 282 282 282 283 283 283 283 283 284 284 284 284 284 284 284 284 284 284 284 284 284 284 284 284 284 284 284 284 284 284 284 284 284 284 284 285 285 285 286 286 286 286 286 287 287 287 287 287 287 287 287 287 287 287 287 287 288 288 288 288 288 288 288 288 288 288 288
284 284 284 284 284 284 284 284 284 284 284 283 283 283 283 283 282 282 282 282 282 282 283 283 283 283 283 283 283 284 284 284 284 284 284 284 284 284 284 284 284 284 284 284 284 284 284 284 284 284 284 284 284 284 284 285 285 285 286 286 286 286 286 286 286 286 286 286 287 287 287 287 287 287 287 287 287 288 288 288 288 288 288 288 288 288
284 284 284 284 284 284 284 284 283 283 283 283 283 283 283 282 282 282 282 282 282 283 283 283 283 283 283 283 283 283 283 283 283 283 283 283 284 284 284 284 284 284 284 283 283 283 283 283 283 283 283 283 284 284 284 285 285 285 285 285 285 285 285 285 286 286 286 286 286 286 286 287 287 287 287 287 287 287 288 288 288 288 288 288 288 288
284 284 284 283 283 283 283 283 283 283 283 283 283 283 283 282 282 282 282 282 282 282 282 282 282 283 283 283 283 283 283 283 283 283 283 283 283 284 284 283 283 283 283 283 282 282 282 283 283 283 283 283 283 284 284 284 284 284 284 284 284 285 285 285 285 285 285 286 286 286 286 286 287 287 287 287 287 287 287 287 288 288 288 288 288 288
283 283 283 283 283 283 283 283 283 283 283 283 283 283 282 282 282 282 282 282 282 282 282 282 282 282 282 282 282 282 282 282 283 283 283 283 283 283 283 283 282 282 282 282 282 282 282 282 283 283 283 283 283 283 283 283 283 283 283 283 284 284 284 284 285 285 285 285 286 286 286 286 286 286 287 287 287 287 287 287 287 287 287 287 287 287
282 282 282 282 282 282 282 282 282 282 282 283 283 283 282 282 282 282 282 282 282 282 282 282 282 282 282 282 282 282 282 282 283 283 282 282 282 282 282 282 282 282 281 281 281 282 282 282 282 282 282 283 283 282 282 282 282 282 282 283 283 283 283 284 284 284 285 285 285 285 286 286 286 286 286 287 287 287 287 287 287 287 287 287 287 287
282 282 282 282 282 282 282 282 282 282 282 282 282 282 282 282 282 282 282 281 281 281 281 281 281 281 281 281 281 282 282 282 282 282 282 282 282 282 282 282 281 281 281 281 281 281 281 282 282 282 282 282 282 282 282 282 282 282 282 282 282 283 283 283 284 284 284 285 285 285 285 285 286 286 286 286 287 287 287 287 287 287 287 287 287 287
282 282 282 282 282 282 282 282 282 282 282 282 282 282 282 282 282 282 281 281 281 281 281 281 281 281 281 281 281 281 281 281 281 281 281 281 281 281 281 281 281 281 281 281 280 281 281 281 281 281 281 281 281 281 281 281 282 282 282 282 282 283 283 283 283 284 284 284 284 285 285 285 285 286 286 286 286 286 286 287 287 287 287 287 287 287
282 282 282 282 282 282 282 282 282 283 283 283 282 282 282 282 282 282 281 281 281 281 281 281 281 281 281 281 281 281 281 281 281 281 281 281 281 281 281 281 281 280 280 280 280 280 280 281 281 281 281 281 281 281 281 281 281 282 282 282 282 282 283 283 283 283 284 284 284 284 284 285 285 285 285 285 286 286 286 286 286 287 287 287 287 287
282 282 282 282 282 282 282 282 282 282 282 282 282 282 282 282 282 282 281 281 281 281 281 281 281 280 280 280 280 280 280 280 280 280 281 281 281 281 280 280 280 280 280 280 280 280 280 280 280 280 280 281 281 281 281 281 281 282 282 282 282 282 282 283 283 283 283 283 284 284 284 284 284 284 285 285 285 285 285 286 286 286 286 287 287 287
281 281 282 282 282 282 282 282 282 282 282 282 282 282 282 282 282 281 281 281 281 281 280 280 280 280 280 280 280 280 280 280 280 280 280 280 280 280 280 280 280 280 280 280 280 280 280 280 280 280 280 281 281 281 281 281 281 282 282 282 282 282 282 282 283 283 283 283 283 283 283 283 284 284 284 284 284 285 285 285 286 286 286 286 287 287
281 281 282 282 282 282 282 282 282 282 282 282 282 281 281 281 281 281 281 281 280 280 280 280 280 280 280 280 280 280 280 280 280 280 280 280 280 280 280 280 280 280 280 280 280 280 280 280 280 280 280 281 281 281 281 281 282 282 282 282 282 282 282 282 282 282 283 283 283 283 283 283 283 283 284 284 284 285 285 285 285 286 286 286 286 286
281 282 282 282 281 281 281 281 281 281 281 281 281 281 281 281 281 280 280 280 280 280 280 280 280 280 280 280 280 280 280 280 280 280 280 280 280 280 280 280 280 280 280 280 280 280 280 280 280 280 280 281 281 281 281 281 282 282 282 282 282 282 282 282 282 282 282 282 282 283 283 283 283 283 284 284 284 284 284 285 285 285 285 285 286 286
281 281 281 281 281 281 281 281 281 281 281 281 281 281 280 280 280 280 280 280 280 280 280 280 280 280 280 280 280 280 280 280 280 280 280 280 280 280 280 280 280 280 280 280 280 280 280 280 280 280 280 280 281 281 281 281 281 281 282 282 282 282 282 282 282 282 282 282 283 283 283 283 283 283 283 283 283 284 284 284 284 284 284 285 285 285
281 281 281 281 281 281 281 281 281 281 281 280 280 280 280 280 280 280 280 280 280 280 280 280 280 280 280 280 280 280 280 280 280 280 280 280 280 281 280 280 280 280 280 280 280 280 280 280 280 280 280 280 281 281 281 281 281 281 281 281 281 282 282 282 282 282 282 282 282 282 283 283 283 283 283 283 283 283 283 283 284 284 284 284 284 284
281 281 281 281 281 281 281 281 280 280 280 280 280 280 280 280 280 280 280 280 280 280 280 280 280 280 280 280 280 280 280 280 281 281 281 281 281 281 281 281 281 281 281 280 280 280 280 280 280 280 280 280 280 280 281 281 281 281 281 281 282 282 282 282 282 282 282 282 282 282 282 282 282 283 283 283 283 283 283 283 283 283 284 284 284 284
281 281 281 281 281 280 280 280 280 280 280 280 280 280 280 280 280 280 280 280 280 280 280 280 280 280 280 280 280 280 281 281 281 281 281 281 281 281 281 281 281 281 281 281 281 281 280 280 280 280 280 280 280 281 281 281 281 281 281 281 282 282 282 282 282 282 282 282 282 282 282 282 283 283 283 283 283 283 283 283 283 283 283 283 283 284
281 281 281 280 280 280 280 280 280 280 280 280 280 280 280 280 280 280 280 280 280 280 280 280 281 281 281 281 281 281 281 281 281 281 281 281 281 281 281 281 281 281 281 281 281 281 281 281 281 281 281 281 281 281 281 281 281 281 281 281 281 281 282 282 282 282 282 282 282 282 282 282 283 283 283 283 283 283 283 283 283 283 283 283 283 283
281 280 280 280 280 280 280 280 280 280 280 280 280 280 280 280 280 280 280 280 281 281 281 281 281 281 281 281 281 281 281 281 281 281 281 281 281 281 281 281 281 281 281 281 281 281 281 281 281 281 281 281 281 281 281 281 281 281 281 281 281 281 282 282 282 282 282 282 282 282 282 282 282 282 283 283 283 283 283 283 283 283 283 283 283 283
280 280 280 280 280 280 280 280 280 280 280 280 280 280 280 280 280 280 281 281 281 281 281 281 281 281 281 281 281 281 281 281 281 281 281 281 281 281 281 281 281 281 281 281 281 281 281 281 281 281 281 281 281 281 281 281 281 281 281 281 281 281 281 282 282 282 282 282 282 282 282 282 282 282 282 282 283 283 283 283 283 283 283 283 283 283
280 280 280 280 280 280 280 280 280 280 280 280 280 280 280 280 281 281 281 281 281 281 281 281 281 281 281 281 281 281 281 281 281 281 281 281 281 281 281 281 281 281 281 281 281 281 281 281 281 281 281 281 281 281 281 281 281 281 281 281 281 281 281 282 282 282 282 282 282 282 282 282 282 282 282 282 282 283 283 283 283 283 283 283 283 283
281 281 281 281 280 280 280 280 280 280 280 280 280 280 280 281 281 281 281 281 281 281 281 281 281 281 281 281 281 281 281 281 281 281 281 281 281 281 281 281 281 281 282 281 281 281 281 281 281 281 281 281 281 281 281 281 281 281 281 281 281 282 282 282 282 282 282 282 282 282 282 282 282 282 282 283 283 283 283 283 283 283 283 283 283 283
281 281 281 281 281 280 280 280 280 280 280 280 280 281 281 281 281 281 281 281 281 281 281 281 281 281 281 281 281 281 281 281 281 281 281 281 281 281 281 281 281 281 282 282 282 282 282 281 281 281 281 281 281 281 281 281 281 281 281 281 282 282 282 282 282 282 282 282 282 282 282 282 282 282 283 283 283 283 283 283 283 283 283 283 283 283
281 281 281 281 281 280 280 280 280 280 280 280 281 281 281 281 281 281 282 282 282 281 281 281 281 281 281 281 281 281 281 281 281 281 281 281 281 281 281 281 282 282 282 282 282 282 282 282 282 282 282 281 282 282 282 282 282 282 282 282 282 282 282 282 282 282 282 282 283 283 283 283 283 283 283 283 283 283 283 283 283 283 283 283 283 283
281 281 281 281 281 281 281 281 280 280 281 281 281 281 281 281 281 282 282 282 281 281 281 281 281 281 281 281 281 281 281 281 281 281 281 281 281 282 282 282 282 282 282 282 282 282 282 282 282 282 282 282 282 282 282 282 282 282 282 282 282 282 282 282 282 282 282 283 283 283 283 283 283 283 283 283 283 283 283 283 283 283 283 283 283 283
281 281 281 281 281 281 281 281 281 281 281 281 281 281 281 281 282 282 282 282 282 281 281 281 281 281 281 281 281 281 281 281 282 282 282 282 282 282 282 282 282 282 282 282 282 282 282 282 282 282 282 282 282 282 282 282 282 282 282 282 282 282 282 282 283 283 283 283 283 283 283 283 283 283 283 283 283 283 283 283 283 283 283 283 283 284
281 281 281 281 281 281 281 281 281 281 281 281 281 281 282 282 282 282 282 282 282 282 282 282 282 282 282 282 282 282 282 282 282 282 282 282 282 282 282 282 282 282 282 282 282 282 282 282 282 282 282 283 283 283 283 283 283 283 283 283 283 283 283 283 283 283 283 283 283 283 284 284 284 284 284 284 284 284 284 284 284 284 284 284 284 284
Wind_Speed
10 10 11 11 11 11 10 9 10 11 12 13 13 14 14 15 16 16 16 17 17 17 17 17 17 17 17 17 17 17 18 18 18 19 19 21 22 23 23 23 23 23 22 21 20 19 19 19 19 20 20 20 20 20 20 21 21 21 21 21 21 21 21 21 21 21 21 20 20 20 20 19 19 20 20 20 20 21 21 22 23 24 25 26 25 25
11 11 11 11 11 11 11 10 11 12 13 14 15 15 16 16 16 16 16 17 17 17 17 17 17 17 18 18 18 18 18 19 19 20 21 22 23 23 24 24 23 23 22 21 20 20 20 20 20 21 21 21 21 21 21 21 21 21 21 21 21 21 21 21 21 21 21 21 21 21 20 20 20 20 20 20 20 20 21 21 21 21 22 24 25 25
11 12 12 11 11 11 12 12 13 13 14 15 16 16 16 16 16 16 17 17 18 18 17 17 17 18 18 18 19 19 19 19 20 21 22 23 23 23 23 23 23 22 21 21 20 20 20 21 21 22 22 22 22 22 22 22 22 22 22 22 22 21 21 21 21 21 21 22 22 22 22 21 21 21 21 21 21 21 20 20 20 20 20 21 22 23
11 12 12 12 12 12 13 14 14 15 15 15 15 15 15 15 15 16 16 17 18 18 17 16 17 17 18 18 19 19 19 20 21 22 23 23 23 23 23 22 22 21 21 20 20 20 21 21 22 22 23 23 23 23 23 23 23 22 22 22 22 22 21 21 21 21 21 21 22 22 22 22 22 22 21 21 21 21 21 20 20 19 19 19 19 19
10 11 12 12 13 13 14 14 15 15 15 15 15 14 14 14 14 15 17 17 16 16 16 15 16 16 17 18 18 19 20 21 21 22 23 23 23 22 22 21 21 20 20 20 20 21 21 22 22 23 23 23 23 23 23 23 23 23 22 22 22 21 21 21 21 21 21 21 21 21 21 21 22 21 22 22 22 22 22 21 21 20 19 19 18 18
10 11 12 12 13 14 14 14 14 14 15 14 14 13 13 14 14 15 16 16 15 15 15 15 16 16 17 18 18 19 20 20 21 22 22 22 22 21 21 20 20 20 20 20 21 21 22 22 23 23 23 23 23 23 23 23 23 22 22 22 21 21 21 20 20 20 20 20 20 20 20 20 21 21 21 21 21 22 22 22 22 22 21 21 20 20
11 11 12 12 13 13 13 13 13 13 13 13 13 13 13 14 14 15 15 15 15 15 15 15 16 17 17 18 18 19 20 20 21 21 21 20 20 20 20 20 20 20 21 21 22 22 22 23 23 23 23 23 23 23 23 23 22 22 22 21 21 20 20 19 19 19 19 19 19 19 19 19 19 20 20 20 20 21 21 22 22 22 22 22 22 22
12 12 12 12 12 13 12 12 12 12 12 13 13 14 14 14 14 14 14 14 14 15 15 16 17 17 17 17 18 19 19 20 20 20 20 19 19 19 19 19 20 21 21 22 22 22 22 23 23 23 23 23 23 22 22 22 22 22 21 20 20 19 19 19 19 19 19 19 19 19 19 19 19 19 19 19 20 20 20 21 21 22 22 23 23 23
11 12 12 11 12 12 12 12 11 11 12 12 13 14 15 15 15 14 14 14 14 14 15 17 17 18 17 18 18 19 19 20 20 20 20 19 19 19 19 20 20 21 21 21 22 22 22 23 23 22 22 22 22 22 22 22 21 21 20 20 19 18 18 18 18 18 18 18 18 19 19 19 19 19 19 20 20 20 20 21 21 22 22 23 23 23
11 11 11 11 11 11 12 12 12 12 12 13 13 13 14 14 15 15 15 15 15 15 16 16 17 18 19 19 19 19 20 20 19 19 19 18 18 19 19 20 20 20 21 21 21 22 22 22 22 22 22 22 22 22 21 21 21 20 19 19 18 18 18 18 18 18 18 19 19 19 19 19 20 20 20 20 20 21 21 21 21 22 22 23 23 24
10 10 11 11 11 10 11 12 13 13 13 13 13 13 12 12 13 14 15 16 16 17 16 16 17 18 19 20 20 20 20 19 19 18 17 17 17 18 18 19 19 20 20 20 21 21 21 21 21 21 21 21 21 21 21 20 19 19 18 18 18 18 18 18 19 19 19 20 20 20 20 20 21 21 21 21 21 21 21 21 22 22 22 23 23 24
10 10 10 10 10 11 11 12 12 13 13 12 12 12 11 12 13 14 15 16 17 18 18 18 18 18 19 20 20 20 19 19 18 18 17 17 17 18 18 18 19 19 19 20 20 20 20 20 21 21 21 21 20 20 19 19 19 18 18 18 18 18 19 19 20 20 20 21 21 21 21 21 22 22 22 22 22 22 22 22 22 22 22 23 23 23
9 9 10 10 10 11 11 12 12 12 11 11 11 11 12 13 14 15 15 16 17 18 19 19 19 19 19 19 19 19 18 18 18 18 17 17 17 18 18 19 19 19 20 20 20 20 20 20 20 20 19 19 19 19 18 18 18 18 18 19 19 20 20 21 21 21 21 22 22 22 22 22 22 22 22 22 22 22 22 22 22 22 23 23 23 24
9 9 9 10 10 11 11 11 11 11 11 11 11 12 13 14 15 15 15 16 17 18 19 19 19 19 18 17 17 17 17 17 18 18 18 18 18 18 19 20 20 20 20 20 20 20 19 19 19 19 19 18 18 18 18 18 18 19 20 21 21 22 22 22 22 22 22 22 22 23 23 23 23 23 23 23 23 22 22 23 23 23 23 23 23 24
9 9 9 9 10 10 11 11 11 11 11 11 12 13 14 14 14 15 15 16 18 19 19 19 19 18 17 15 15 15 16 16 17 18 19 19 19 19 20 20 20 20 20 20 20 20 19 19 19 19 18 18 18 18 18 19 20 21 22 22 23 23 23 23 23 23 23 23 23 23 23 23 23 23 23 23 23 23 23 23 23 23 23 23 24 24
9 9 9 10 10 10 10 11 11 11 12 12 13 13 13 14 14 15 16 17 18 18 17 17 17 16 15 14 13 14 15 16 18 19 20 21 20 19 19 20 20 20 19 19 19 19 19 18 18 18 18 18 18 19 19 20 21 22 23 23 23 23 23 23 23 23 23 24 24 24 24 24 24 24 24 24 24 23 23 23 23 23 23 24 24 24
9 9 10 10 10 11 11 11 11 12 12 12 12 12 13 13 14 15 16 17 17 16 15 15 13 12 12 14 14 14 15 17 19 20 21 21 21 20 19 19 20 19 19 19 19 19 18 18 18 18 18 18 19 20 21 22 22 23 23 23 23 23 24 24 24 24 24 24 24 24 24 24 24 24 24 24 24 24 24 24 24 24 24 24 24 24
10 10 10 10 11 11 11 11 11 12 12 12 12 13 13 14 15 15 16 16 15 15 15 14 13 11 11 13 15 16 17 19 20 21 21 21 21 20 18 18 19 19 19 19 19 18 18 18 19 19 19 20 20 21 22 22 22 23 23 23 24 24 24 25 25 25 25 25 25 25 25 25 25 24 24 24 24 24 24 24 24 24 24 24 24 24
10 10 10 10 11 11 11 11 11 11 12 12 13 14 15 15 15 15 15 15 15 15 15 14 14 14 14 16 17 18 19 20 21 21 21 21 20 19 18 18 18 18 19 19 19 18 19 19 19 20 20 21 21 22 22 22 23 23 24 24 25 25 25 25 26 26 26 25 25 25 25 25 25 25 25 25 25 25 24 24 24 24 24 24 24 24
10 10 10 11 11 11 12 11 11 12 12 13 14 15 15 15 15 15 15 15 15 15 15 15 15 16 17 18 19 20 20 20 20 20 20 20 20 19 18 18 18 19 19 19 19 19 19 20 20 21 21 21 21 22 22 23 24 24 25 25 26 26 26 26 26 26 26 26 26 25 25 25 25 25 25 25 25 25 25 25 25 24 24 24 24 24
10 10 10 10 11 11 12 12 13 13 14 14 15 15 15 15 15 15 15 15 15 15 15 16 16 17 18 19 20 21 21 20 20 19 19 19 19 19 18 18 18 19 20 20 20 20 20 20 21 21 21 21 21 22 23 24 24 25 26 26 26 26 27 26 26 26 26 26 26 26 26 26 26 26 26 26 25 25 25 25 25 25 25 24 24 24
10 11 11 11 11 12 12 14 14 14 14 15 15 15 15 15 15 15 16 16 16 16 16 17 17 18 19 20 21 21 21 19 19 19 19 18 19 19 18 18 19 19 20 20 20 20 20 21 21 21 21 21 22 23 24 24 25 26 26 27 27 27 27 27 26 26 26 26 26 26 26 26 26 26 26 26 26 25 25 25 25 25 25 25 25 25
10 11 11 11 12 12 13 14 15 15 14 14 14 15 15 15 15 16 17 17 17 17 18 18 19 20 20 20 21 21 20 18 18 18 17 16 17 19 19 19 19 20 20 21 21 21 21 21 21 22 22 22 22 23 24 25 26 26 26 26 26 26 26 26 26 26 26 26 26 26 26 26 26 26 26 26 26 26 26 26 26 26 26 27 27 27
10 11 12 12 12 12 13 14 15 15 15 15 15 16 16 17 17 17 17 17 17 18 18 19 19 19 19 19 19 18 17 16 16 16 16 16 17 20 20 20 20 20 20 21 21 21 21 22 22 22 22 23 23 24 24 25 25 25 25 25 25 25 25 25 25 26 26 26 26 27 27 27 27 27 27 27 27 27 27 27 27 27 28 28 28 29
10 11 12 13 13 14 15 16 16 17 17 17 17 18 18 17 16 16 16 16 16 17 17 17 17 17 17 17 16 16 15 15 15 15 16 16 18 20 20 19 19 20 21 21 21 22 22 22 22 23 23 23 24 24 24 24 24 24 24 24 24 24 25 25 26 26 27 27 27 28 28 28 28 28 28 28 28 27 27 27 28 28 28 29 29 30
12 13 14 15 16 17 18 19 19 19 19 18 18 17 16 15 15 15 15 15 14 14 15 14 14 15 16 15 15 15 15 15 15 15 16 16 18 19 19 18 18 19 21 22 22 22 23 23 23 24 24 24 23 23 22 22 22 22 22 23 24 24 25 26 27 27 28 28 28 28 28 28 28 28 28 28 28 28 28 28 28 28 28 28 29 29
15 16 17 17 18 19 19 19 19 18 18 17 16 15 14 14 13 13 13 13 12 12 13 12 13 13 14 14 14 15 16 16 16 16 16 17 17 18 18 18 18 20 22 23 23 23 23 23 24 23 23 22 22 21 20 20 20 21 22 23 24 26 27 27 28 28 28 28 28 28 28 28 28 28 28 28 28 28 28 28 28 28 28 28 28 28
15 15 16 17 17 17 17 17 17 16 15 14 13 13 12 12 11 12 12 12 11 11 12 12 12 12 12 13 15 16 17 17 16 15 15 15 15 16 18 18 19 20 22 23 24 24 23 22 22 22 21 20 20 19 19 20 21 22 23 24 25 26 27 28 28 28 28 28 27 27 27 27 27 27 27 28 28 28 28 28 28 28 28 28 27 26
13 14 14 15 15 15 15 15 14 14 13 13 12 11 10 10 11 11 12 11 11 11 12 13 13 12 13 15 16 17 17 16 14 13 13 14 14 16 18 18 19 20 21 23 24 24 22 20 19 18 18 18 18 19 20 21 22 23 24 25 26 26 26 27 27 27 27 27 27 27 27 27 27 27 27 27 27 27 27 27 27 27 27 26 26 26
13 13 13 13 13 13 12 13 12 12 12 11 11 11 10 10 10 11 11 11 11 11 12 13 13 14 14 15 15 14 13 13 12 12 14 14 14 16 18 18 18 18 19 19 17 16 18 19 18 16 16 17 19 20 21 23 24 24 25 25 25 25 25 25 25 26 26 27 27 27 27 27 27 27 27 27 27 27 27 27 27 26 26 26 25 25
13 12 12 12 12 11 11 11 11 11 11 10 10 10 10 10 10 11 11 11 11 12 12 13 13 14 14 12 9 6 7 12 13 13 15 15 15 16 18 18 18 18 17 15 9 6 11 16 18 18 17 19 20 22 22 23 24 24 24 24 25 25 25 25 25 25 26 26 26 26 26 26 26 26 27 27 27 27 27 27 26 26 25 25 25 25
12 12 12 12 12 11 10 10 10 10 10 10 9 9 9 10 10 10 11 11 11 12 13 13 14 15 14 13 10 8 10 15 17 16 16 15 16 17 17 17 17 18 17 16 13 10 8 10 17 23 22 22 22 22 22 22 23 23 23 24 24 25 24 24 24 25 25 25 25 25 26 26 26 26 26 27 27 27 27 26 26 25 25 24 24 25
12 12 12 12 11 11 10 10 10 10 10 10 10 10 10 10 10 11 11 12 12 12 13 14 15 15 15 16 15 15 17 18 18 17 16 15 15 16 17 17 18 18 18 18 18 17 14 15 20 24 25 24 22 22 22 22 22 22 23 23 24 25 25 24 24 24 25 25 25 25 26 26 26 26 26 26 26 26 26 26 25 24 24 24 24 24
12 12 12 11 11 10 10 10 10 10 10 10 10 10 10 11 11 11 12 12 13 13 14 14 15 15 15 16 16 17 18 19 17 16 15 15 16 17 18 18 19 19 19 18 18 18 18 20 21 22 23 24 23 22 22 22 22 22 22 23 23 24 24 24 24 24 25 25 26 26 26 26 26 25 25 25 25 25 25 24 24 24 24 24 24 24
12 12 11 11 11 11 11 11 11 11 11 11 10 10 11 11 12 12 13 13 13 14 15 15 16 16 16 16 17 18 19 19 18 17 16 16 17 18 19 19 19 19 18 18 18 17 17 19 21 21 21 23 24 24 23 22 22 22 22 22 23 24 24 24 24 25 26 26 26 26 26 26 26 26 25 25 25 25 24 25 25 25 25 25 25 24
12 12 11 11 11 11 12 12 11 11 11 11 11 11 12 13 13 14 14 14 15 15 16 16 17 18 18 18 19 20 21 21 21 20 19 18 19 19 19 20 20 19 18 18 18 18 17 19 21 22 21 21 22 23 23 22 22 22 22 23 23 24 24 24 24 25 26 26 27 27 27 26 26 26 26 25 25 25 26 26 26 26 26 26 26 26
12 12 12 12 12 12 12 12 12 12 12 12 13 13 14 14 15 15 15 16 16 17 17 18 18 19 19 20 21 22 23 23 23 22 21 21 21 21 21 21 22 21 20 19 19 20 19 19 20 21 20 19 19 20 23 24 24 23 23 23 23 24 24 25 25 25 25 26 26 27 26 26 26 26 26 26 26 26 26 26 26 25 25 25 25 26
12 12 12 12 12 12 12 13 13 13 13 14 14 15 15 16 16 16 16 17 17 17 18 18 18 19 20 20 22 23 24 25 25 25 25 24 24 24 23 23 23 22 22 20 20 20 20 18 15 14 16 19 21 23 24 25 25 24 25 25 25 25 25 25 24 24 25 25 26 26 26 26 26 27 27 27 26 26 26 25 25 24 23 24 24 24
12 12 13 13 13 13 13 13 14 14 14 15 16 16 17 17 17 17 17 17 17 17 17 18 19 20 21 22 23 24 25 26 26 27 27 27 26 25 24 23 23 23 23 22 21 21 20 19 17 15 16 19 22 25 26 25 25 25 26 27 26 25 24 23 22 23 23 24 26 27 27 27 27 27 27 27 26 26 25 25 25 24 23 23 23 24
12 13 13 13 13 13 13 14 15 15 16 16 17 17 17 17 17 17 17 17 17 17 18 18 19 20 21 22 22 22 23 24 25 26 26 27 27 26 25 25 24 24 23 23 22 22 21 21 22 22 22 22 23 24 26 26 25 25 26 25 25 25 25 23 23 24 25 25 26 27 27 27 27 27 26 26 25 25 25 25 25 24 24 23 23 24
13 13 13 14 14 14 14 15 16 16 17 17 17 17 17 17 17 17 17 18 18 18 18 18 19 20 21 21 22 22 22 23 24 25 25 26 26 26 26 25 25 24 24 23 23 23 23 23 24 25 25 25 25 26 27 27 27 26 26 24 25 27 28 27 26 25 25 25 26 26 26 26 26 26 26 26 26 26 26 26 26 26 25 25 24 24
13 13 14 15 15 15 15 16 16 17 17 17 17 17 17 17 17 17 18 18 18 18 18 19 19 20 21 22 22 22 22 23 23 24 25 25 25 26 27 26 25 24 23 23 23 23 23 23 24 24 25 25 25 26 26 28 28 27 25 25 27 28 29 28 26 24 23 24 25 25 25 26 26 27 27 27 27 27 26 26 26 26 26 25 25 25
13 14 14 15 16 16 16 17 17 17 17 16 17 17 17 17 17 17 18 18 19 19 19 20 20 20 21 22 23 23 23 23 22 22 23 23 24 25 25 25 25 24 23 23 22 23 24 24 24 24 25 25 25 25 27 28 29 28 27 26 26 25 23 26 27 25 24 25 25 26 26 27 27 27 28 28 28 27 27 27 26 26 26 26 26 26
14 15 15 16 16 17 17 16 16 16 17 17 17 17 18 18 17 17 18 19 19 19 19 20 20 21 21 22 22 23 23 23 22 22 22 22 22 23 24 24 24 24 24 23 23 23 24 24 24 25 25 24 25 26 27 28 29 29 29 28 26 25 24 26 28 28 27 27 27 27 27 27 27 28 28 28 28 27 27 27 26 26 26 26 26 27
15 15 16 16 16 16 16 16 17 17 17 17 17 18 18 18 18 17 18 19 19 20 20 19 19 19 20 20 21 22 23 23 22 22 22 21 21 21 22 22 23 23 23 24 24 23 23 23 24 25 25 25 25 26 27 28 29 30 30 29 27 27 28 29 29 28 28 28 28 28 27 27 27 27 27 28 27 27 26 26 26 26 26 26 26 27
15 15 16 16 16 16 16 17 17 17 17 18 18 19 19 19 18 18 18 18 19 19 20 19 19 18 19 20 21 22 22 23 23 22 22 22 21 21 21 22 22 22 23 23 24 25 25 25 25 25 26 25 26 27 28 28 28 28 29 30 29 28 29 29 28 27 27 27 27 28 27 27 26 26 27 27 28 28 27 27 26 26 27 27 27 27
15 15 16 16 16 17 17 17 17 17 17 18 18 19 19 19 18 18 18 19 19 19 19 19 19 19 20 21 21 21 22 22 23 23 23 23 23 22 22 21 21 21 22 23 24 25 25 26 26 26 25 25 26 28 29 29 28 27 28 29 28 28 27 28 28 27 27 27 28 28 28 27 26 27 28 28 29 29 28 28 27 27 27 27 27 27
15 16 16 16 16 17 17 17 17 17 18 18 19 19 19 19 18 18 18 19 19 19 19 19 19 19 20 21 21 21 22 22 23 23 24 23 23 22 22 22 21 22 22 23 23 24 26 27 28 28 27 26 26 27 29 30 29 28 28 28 28 27 27 29 29 28 27 28 29 29 29 27 26 26 28 28 28 28 29 28 27 27 27 27 27 27
15 15 16 16 16 17 17 17 18 18 18 19 20 20 20 19 19 18 18 19 19 19 19 19 19 19 20 20 21 22 22 22 23 23 23 23 23 22 22 22 22 22 23 23 24 24 25 27 28 28 28 28 28 28 30 30 30 29 29 28 27 27 27 29 29 29 28 28 29 30 29 28 27 27 27 27 27 29 30 30 29 28 28 27 27 27
15 16 16 16 16 17 17 18 18 19 19 19 20 20 20 20 19 19 18 19 19 18 18 19 19 19 20 20 21 22 22 22 22 23 23 23 22 22 21 22 22 22 23 23 24 24 24 24 25 25 25 26 27 29 29 30 30 30 29 28 27 26 27 28 29 29 28 28 28 29 29 28 27 26 26 26 27 28 29 30 30 29 28 27 27 28
16 16 16 16 17 17 18 18 18 19 19 19 20 20 20 20 20 19 19 18 18 19 19 19 19 19 20 21 21 22 22 22 22 22 23 23 22 22 21 21 21 21 21 20 21 21 20 19 18 20 22 22 23 25 27 28 28 28 28 28 27 26 26 27 28 28 28 27 27 28 27 27 26 26 26 25 25 25 26 27 29 30 29 28 27 27
Wind_Direction
307 310 312 314 315 314 313 317 321 321 319 320 320 319 320 319 319 319 319 319 319 318 316 314 313 312 312 312 312 312 312 312 311 311 311 312 313 314 316 316 317 317 317 317 317 316 317 318 319 320 321 321 321 320 320 318 317 316 313 312 310 307 306 304 303 302 301 300 300 300 300 299 298 296 294 295 295 295 295 294 293 291 288 286 285 283
309 310 312 314 315 314 313 317 320 320 319 318 318 318 319 318 318 319 320 320 319 318 317 315 314 314 313 313 313 313 312 312 311 311 311 311 312 313 314 315 315 315 315 315 315 314 314 315 316 317 317 318 317 317 317 316 316 315 314 312 311 309 307 306 304 302 301 300 299 299 299 298 296 295 294 293 293 293 292 293 292 291 290 287 283 281
312 311 311 312 314 314 313 316 317 317 316 315 315 315 316 316 317 318 320 320 318 317 315 314 314 313 313 312 312 312 311 311 311 310 310 311 311 312 312 313 313 314 314 313 313 312 312 313 313 314 315 315 315 315 314 314 313 313 312 311 310 309 308 307 305 304 302 300 299 299 299 297 297 297 296 296 295 294 294 293 292 290 288 285 282 279
311 310 310 312 312 311 311 312 313 313 312 311 311 312 313 314 315 316 316 316 315 313 312 311 311 311 311 310 310 309 309 309 309 309 309 309 310 310 311 311 312 312 312 312 311 311 311 311 311 312 313 314 314 314 313 313 312 311 310 309 308 308 307 306 306 305 303 302 302 300 299 298 298 297 296 296 295 294 293 292 291 290 288 286 285 282
308 308 310 312 311 308 308 308 309 309 309 309 309 311 312 313 313 313 312 311 310 309 309 309 308 308 308 308 307 307 307 307 307 307 308 308 308 309 309 310 310 310 310 310 310 309 309 309 310 310 311 312 313 313 313 313 312 312 310 309 308 307 306 305 305 305 304 304 303 302 301 301 300 299 297 295 294 293 291 291 290 290 290 288 288 286
306 307 309 309 307 305 306 307 307 309 309 309 309 310 311 311 311 309 309 308 307 307 307 307 307 307 306 305 305 305 305 306 306 306 306 306 307 307 308 308 309 309 309 309 308 308 308 308 308 309 310 310 311 312 312 313 313 312 311 310 309 307 306 306 305 304 305 305 305 305 305 304 304 302 301 299 297 295 293 292 290 288 288 286 284 282
303 304 306 304 303 302 304 305 307 310 311 312 312 312 311 310 308 307 306 306 307 308 309 309 308 308 307 306 305 306 306 306 306 305 305 305 306 306 307 307 308 308 308 308 307 307 307 307 308 308 308 309 310 310 311 312 313 313 312 312 311 309 308 306 305 305 305 305 306 306 306 306 305 305 304 303 302 300 299 296 293 290 288 286 284 282
302 303 304 304 304 304 304 305 309 312 314 314 314 314 312 310 309 308 308 308 310 312 313 312 311 310 309 308 308 308 307 307 306 306 305 305 305 306 306 307 307 307 307 307 307 307 307 307 307 307 307 308 308 309 310 311 311 312 312 312 312 311 309 308 307 306 306 306 306 306 306 306 306 306 306 306 305 304 303 301 298 296 293 290 287 286
302 303 304 304 306 308 308 308 310 314 316 315 314 313 312 311 311 312 313 314 315 316 316 315 313 312 310 310 309 309 308 306 306 305 305 305 305 306 306 306 306 307 306 306 306 307 306 306 306 306 306 307 307 308 308 309 310 310 311 311 311 311 311 310 309 308 307 306 306 305 305 304 304 305 305 305 305 304 303 302 300 298 296 293 290 288
301 303 304 305 306 307 308 308 311 314 314 312 310 308 308 310 314 317 318 317 317 317 316 315 314 313 312 311 311 309 308 306 305 305 304 304 305 305 305 306 306 306 306 306 306 307 306 306 306 306 306 306 306 306 307 307 308 308 309 309 310 311 310 310 309 308 307 306 305 304 303 303 302 303 303 303 303 303 302 302 300 298 297 294 292 289
304 303 304 304 306 306 306 306 309 311 312 311 309 308 308 312 317 321 320 318 317 317 316 315 314 313 312 312 311 309 308 307 306 305 305 305 305 305 305 305 305 305 305 306 306 306 305 305 305 305 305 305 305 305 306 306 306 307 307 307 308 309 309 309 308 308 307 306 304 303 302 301 301 301 301 301 301 301 301 301 300 299 298 295 292 290
303 304 303 305 307 308 307 307 308 311 313 313 314 314 316 319 321 321 319 316 316 316 316 315 313 311 309 309 308 307 307 306 306 307 307 307 307 307 306 306 306 306 305 305 305 305 304 304 304 305 305 304 304 304 305 305 305 306 306 306 306 307 307 307 307 307 306 304 303 302 301 301 300 299 299 298 298 298 298 298 298 297 296 295 292 291
301 303 305 307 308 309 309 310 311 314 316 317 318 319 319 320 321 319 316 313 313 314 314 313 311 308 306 304 304 304 305 305 306 306 307 308 308 309 308 308 307 307 306 306 305 304 304 304 304 304 304 303 304 304 305 305 306 306 306 306 306 305 305 305 305 305 304 303 302 301 300 300 299 298 298 297 296 296 296 296 295 294 293 292 290 289
305 308 309 310 309 308 308 310 312 313 314 316 317 317 317 318 319 319 316 313 312 312 312 309 307 305 305 303 303 303 304 306 307 308 308 308 308 309 309 308 307 307 306 305 304 304 304 304 304 304 304 303 304 304 305 306 306 306 306 305 305 304 304 303 303 303 302 302 301 301 300 299 298 298 297 296 296 295 294 294 293 292 291 290 288 287
309 312 311 308 306 305 306 308 309 311 312 314 315 315 316 317 319 320 318 314 312 311 310 307 305 304 304 304 304 305 307 309 310 310 309 308 308 309 309 308 307 306 305 304 304 304 304 304 304 304 304 304 304 304 305 305 306 306 305 305 304 304 303 303 302 302 301 301 301 300 300 299 298 297 297 296 296 295 294 293 292 291 290 289 288 286
309 308 306 303 301 302 304 307 308 310 311 313 315 317 319 319 319 318 316 312 310 309 308 308 308 308 307 306 307 310 313 314 313 312 311 308 308 309 310 308 307 305 305 304 304 304 305 305 305 305 305 305 305 305 305 305 305 305 305 305 304 304 303 303 303 302 302 301 300 300 299 298 297 297 296 295 295 294 293 292 291 290 289 288 287 286
303 301 299 298 299 300 303 306 308 310 311 313 316 318 319 317 316 313 310 307 306 306 306 307 309 310 310 310 310 314 318 318 316 313 310 307 307 308 309 307 305 304 304 303 303 304 306 306 306 306 305 305 305 306 306 306 306 305 305 305 305 305 304 304 303 302 302 301 300 299 298 298 297 296 295 294 293 293 292 291 289 288 288 287 286 286
296 295 295 296 298 301 305 307 309 311 313 315 316 316 314 311 308 306 303 302 301 301 303 304 305 304 306 307 308 312 318 319 316 312 309 306 305 307 309 306 304 303 303 303 303 304 305 305 305 305 305 305 305 305 305 305 305 306 306 306 305 305 304 304 303 302 301 300 299 299 298 297 296 295 294 294 292 292 291 290 289 287 287 286 285 285
292 293 295 297 300 302 305 307 310 313 315 315 314 312 308 305 303 301 298 297 296 298 300 301 300 299 300 300 303 309 315 316 314 310 306 304 304 307 309 307 304 303 302 302 303 305 305 305 304 304 304 304 304 304 305 305 305 305 305 305 305 304 304 303 302 302 301 300 299 298 297 297 296 295 294 293 292 291 290 289 288 287 285 284 284 283
291 292 295 299 303 305 305 305 307 309 311 310 308 305 302 300 299 297 295 295 295 296 297 297 296 296 297 298 301 306 311 313 311 307 303 301 302 305 308 307 305 304 302 302 303 305 305 305 304 304 303 303 303 304 304 304 304 304 303 303 303 303 303 302 301 301 300 300 299 298 298 297 296 295 295 294 293 291 290 289 288 286 285 284 283 283
290 291 294 300 304 304 301 300 301 302 303 303 302 300 297 296 295 294 294 295 296 296 296 294 293 294 297 298 299 303 307 308 305 303 301 301 302 304 307 307 306 304 303 303 303 304 305 305 304 304 303 303 303 303 303 303 303 303 302 302 302 302 301 300 300 299 299 299 298 298 298 297 296 296 295 294 293 292 291 289 288 286 285 284 283 283
289 291 293 297 298 296 294 294 295 296 297 298 297 295 293 294 294 294 295 296 296 295 293 291 291 293 295 295 296 298 301 299 298 298 301 301 301 303 307 308 307 305 303 303 304 305 305 305 304 303 302 302 302 302 302 302 302 302 301 301 300 300 300 299 298 298 297 297 297 296 297 296 296 295 294 294 293 292 291 290 288 286 285 284 283 283
288 288 291 292 291 289 289 290 291 293 294 293 291 290 289 290 291 292 293 293 292 291 291 290 291 292 292 291 292 295 297 296 296 297 299 298 299 303 307 309 307 304 302 302 304 305 305 304 303 303 302 302 302 302 302 301 301 301 300 300 300 299 299 298 298 297 297 297 296 295 295 295 295 294 294 293 292 292 291 290 289 288 286 285 284 283
286 286 287 286 285 285 285 287 289 290 292 291 289 287 287 286 286 286 287 288 289 289 290 291 292 292 292 293 294 296 298 299 300 301 300 297 298 301 306 308 306 304 302 302 304 306 306 304 303 303 302 302 302 301 301 300 300 300 300 300 300 299 299 299 298 298 297 297 296 295 295 294 294 293 292 292 291 290 290 289 288 287 286 285 285 284
284 283 282 281 281 282 283 285 287 288 289 289 289 288 288 287 286 286 287 287 287 288 289 291 291 292 295 297 299 299 301 303 305 304 301 298 297 300 303 305 305 303 302 303 305 306 305 304 303 303 302 302 301 300 300 300 300 300 301 301 301 301 300 300 299 298 298 297 296 295 294 293 293 292 291 291 290 289 289 288 287 286 286 285 285 284
285 282 280 280 281 282 284 285 286 287 287 288 288 289 289 290 290 290 289 288 287 288 291 291 291 293 297 300 301 302 304 306 306 303 300 298 298 299 301 304 305 305 304 305 306 307 306 304 303 303 302 301 300 300 300 300 301 301 302 302 302 301 300 299 299 298 297 296 296 295 294 293 292 292 291 290 289 289 288 288 287 287 286 286 286 285
285 283 282 282 283 284 285 285 286 287 287 287 286 287 288 290 291 290 288 288 290 292 294 295 295 297 300 301 301 302 305 307 305 303 300 298 297 298 301 306 309 309 307 306 306 306 305 303 302 301 301 300 300 301 301 302 302 302 302 302 301 300 299 299 298 297 296 296 295 294 294 293 292 291 291 290 289 289 288 288 287 287 287 287 287 286
285 284 284 284 284 285 286 286 286 287 287 286 286 285 285 286 286 285 285 289 293 295 293 294 296 299 301 301 301 303 305 304 303 302 304 302 298 298 302 308 311 311 310 308 306 305 302 300 299 300 300 301 302 302 303 303 304 303 302 301 300 299 298 297 297 296 296 295 295 294 293 293 292 291 290 290 289 288 288 287 287 287 288 287 286 285
290 289 289 288 288 288 287 287 287 286 285 284 284 283 281 279 277 279 283 290 294 295 293 293 294 296 298 300 301 302 302 300 302 308 314 312 305 301 305 309 312 312 312 310 309 307 303 300 300 301 301 302 303 304 304 304 304 303 301 300 299 298 297 296 296 296 295 295 294 294 293 292 291 291 290 289 288 288 287 287 287 288 287 286 285 284
300 299 298 296 294 293 291 290 289 288 285 283 282 279 276 274 273 275 281 288 291 292 291 292 293 295 298 302 303 302 300 299 306 319 324 319 309 304 307 309 310 312 314 314 312 309 305 304 303 303 303 305 305 305 304 304 303 302 300 299 298 297 296 296 296 296 295 295 294 294 293 292 291 290 290 289 288 288 287 287 287 287 286 285 283 282
307 306 305 303 302 299 296 294 293 291 288 286 283 279 276 274 273 275 279 284 286 286 287 288 291 293 296 300 302 300 297 299 307 318 322 315 306 303 307 308 308 309 311 312 312 310 308 307 307 306 307 307 305 304 303 302 301 300 299 298 297 297 296 297 297 296 296 295 294 294 293 292 291 290 290 289 288 287 287 286 286 286 285 283 282 280
311 309 308 307 306 304 301 299 297 295 294 292 289 286 282 279 277 277 278 280 281 283 283 285 288 289 290 289 286 284 288 294 301 309 314 309 303 301 303 304 304 304 305 302 298 295 299 303 306 307 308 306 305 303 301 300 299 298 298 297 296 295 296 297 297 296 296 295 295 294 293 292 291 290 289 289 288 287 286 286 285 284 283 281 280 279
313 312 310 310 309 307 305 304 302 301 299 298 295 293 290 287 285 283 281 281 281 281 282 284 286 287 287 285 282 281 284 289 295 302 306 304 301 299 301 301 301 301 301 298 293 289 287 291 299 303 305 304 303 302 301 300 298 297 296 295 294 294 295 296 296 296 295 295 295 294 293 292 291 290 289 288 288 287 286 285 284 282 281 279 278 277
314 313 312 312 311 310 309 308 307 305 303 301 299 297 296 294 291 289 286 285 283 282 282 282 283 285 286 286 285 283 284 287 291 297 301 300 298 297 298 298 298 299 299 298 295 292 288 289 294 300 303 303 302 301 300 298 297 296 294 293 292 293 294 295 296 295 295 295 294 294 293 292 292 291 289 289 288 287 286 285 284 282 280 278 277 276
315 314 314 314 314 314 312 311 310 308 306 304 302 301 300 298 296 294 291 288 286 284 282 280 279 279 280 282 284 285 285 287 290 294 295 293 292 293 294 293 294 296 296 295 295 295 293 292 293 296 299 301 301 300 299 297 296 295 294 292 291 292 292 293 294 294 294 294 293 293 292 292 291 290 289 288 287 287 286 285 284 283 280 278 276 275
314 315 316 317 317 316 315 313 311 310 308 306 305 303 302 301 298 296 294 291 288 286 283 281 278 276 274 275 276 278 281 284 288 290 289 287 286 287 288 288 289 291 291 291 292 293 293 293 294 295 296 297 299 300 300 299 298 296 294 293 292 291 291 291 292 292 292 292 292 291 291 291 290 290 289 288 288 287 287 286 285 284 282 279 276 274
314 315 317 318 318 317 315 313 311 310 309 308 307 305 304 302 300 298 295 292 289 287 285 283 281 278 275 273 272 274 277 281 284 285 284 283 282 281 281 283 284 285 285 286 287 289 291 292 294 294 293 292 293 297 300 301 300 298 296 294 294 293 292 291 291 290 290 289 289 289 289 290 290 289 289 289 289 288 288 287 285 284 282 281 278 275
315 316 317 318 318 316 314 313 312 310 309 308 307 305 304 302 300 298 296 293 291 288 286 284 282 280 278 277 276 276 278 280 281 282 281 281 279 278 276 278 280 280 279 279 280 283 286 288 290 293 293 291 291 293 296 299 300 298 297 296 295 293 292 291 290 289 288 288 288 288 288 289 289 289 288 288 288 288 287 286 286 284 283 282 280 277
317 316 316 316 316 315 313 312 311 310 308 307 305 304 302 301 299 298 296 294 292 289 287 286 284 283 281 281 280 280 281 281 282 283 283 282 280 277 275 275 276 278 278 276 275 276 278 280 282 285 289 291 292 293 294 295 296 297 298 299 297 295 292 292 290 289 288 288 288 288 288 288 287 287 286 286 286 286 285 285 285 284 283 283 281 279
315 314 314 314 314 313 312 310 309 308 307 305 304 303 302 301 301 299 298 296 294 292 291 289 287 286 285 283 282 282 282 283 284 284 284 282 280 278 275 273 274 276 277 277 275 273 273 275 277 280 282 285 288 291 293 293 293 295 298 299 298 296 295 294 292 290 288 287 286 286 287 287 286 285 284 284 283 282 282 282 282 282 281 281 280 280
313 312 312 313 313 312 310 309 308 307 306 305 304 303 303 302 302 301 301 300 299 297 295 294 292 291 289 289 287 285 284 285 285 284 283 283 282 280 276 272 271 273 276 275 274 272 271 272 275 277 279 282 285 287 289 290 291 293 295 294 293 294 294 293 291 289 287 286 284 284 285 285 285 285 284 283 281 280 279 279 279 279 279 277 276 275
311 311 311 312 312 311 310 309 308 307 306 304 303 303 302 302 302 301 301 301 300 300 300 300 298 297 295 294 292 291 290 289 288 287 285 284 283 280 277 274 272 271 272 272 272 271 269 270 272 274 277 280 283 286 287 288 290 291 291 290 291 294 295 293 291 289 287 286 285 285 285 285 284 284 283 282 281 280 279 277 276 276 275 274 272 271
310 309 310 310 310 310 309 309 309 308 307 305 303 302 302 301 301 300 299 299 299 300 301 301 301 299 298 296 295 295 294 293 291 290 288 286 285 282 279 276 273 271 270 270 271 272 273 272 271 272 275 278 280 282 284 287 289 290 289 288 290 292 293 292 292 292 289 287 285 285 284 283 283 283 283 282 281 280 279 277 275 274 272 272 271 270
309 308 309 309 310 310 310 309 309 308 307 305 303 302 302 301 299 298 297 297 298 298 299 300 300 299 298 296 296 297 297 297 295 293 291 289 288 286 283 280 276 273 269 268 269 272 275 274 273 274 275 277 278 280 283 285 287 289 289 288 287 285 283 286 289 291 290 287 285 284 283 282 282 283 282 282 281 279 278 277 275 273 271 270 269 268
308 308 308 310 310 310 309 308 308 307 306 303 302 301 302 302 300 297 295 296 297 297 298 299 299 299 298 297 298 299 300 299 298 297 295 294 292 290 287 284 281 277 273 269 268 268 271 273 275 277 278 278 277 277 280 282 285 286 287 287 285 282 280 282 284 286 287 286 285 284 283 283 282 282 282 281 279 278 277 276 274 272 271 270 268 267
306 307 308 309 310 309 308 307 306 305 304 303 302 302 302 301 299 297 295 295 295 296 297 298 297 296 296 297 299 301 301 301 300 299 298 297 296 294 292 289 285 281 277 274 270 268 267 269 272 276 279 280 279 277 277 279 281 283 284 286 286 284 284 283 282 282 282 283 284 284 284 284 283 282 281 280 280 279 278 276 273 271 271 270 268 266
306 308 308 308 308 308 307 306 305 303 302 302 301 301 302 301 299 297 296 296 296 296 296 297 295 293 293 295 297 299 300 300 300 300 300 299 298 297 295 292 288 284 281 277 274 271 269 268 269 271 274 277 279 280 280 279 279 279 281 283 285 285 284 283 283 282 282 282 283 283 284 284 283 281 280 280 281 280 279 277 274 271 270 269 268 266
307 307 307 306 306 306 305 305 303 302 301 300 300 301 301 300 299 298 297 297 297 297 297 296 294 292 291 293 295 296 296 297 298 299 299 299 299 298 297 295 292 289 285 281 278 275 273 271 269 268 266 268 272 276 279 279 279 278 278 280 282 282 282 282 283 283 283 282 282 282 282 280 279 279 280 281 281 280 279 278 275 272 270 268 266 264
306 305 305 304 304 303 302 302 301 300 298 298 299 299 300 301 300 299 298 297 297 296 295 293 293 292 291 292 294 296 296 296 296 297 298 299 299 299 298 297 296 294 292 288 285 282 279 276 272 268 263 261 263 268 273 276 277 277 277 278 278 279 279 281 282 283 282 282 282 281 280 277 274 274 277 278 278 279 279 279 277 274 272 269 266 264
305 305 303 303 302 301 300 299 299 299 298 297 297 298 300 301 301 300 298 297 296 295 292 292 291 291 291 292 294 296 296 296 296 297 298 299 300 300 299 299 299 298 297 294 292 291 288 285 280 274 267 261 259 260 265 270 274 276 276 276 275 276 277 279 281 282 282 282 282 281 279 276 273 272 273 273 275 276 278 278 277 276 274 271 268 266
304 304 303 302 300 299 299 298 297 296 296 296 297 298 299 300 301 301 300 298 297 296 294 292 291 290 290 291 293 294 295 295 295 295 297 298 300 300 299 299 299 299 298 297 296 296 295 293 290 286 282 274 266 261 261 266 272 276 277 277 277 277 278 279 281 282 282 282 282 282 280 278 275 273 272 271 273 275 276 277 277 277 276 274 271 268